This is the latest recevied weather packets stored in our database for station/object G4KVI. If no packets are shown the sender has not sent any weather packets the latest 10 day(s).
| Time | Temp. | Humidity | Pressure | Rain* | Wind** | Luminosity | Snow |
|---|---|---|---|---|---|---|---|
| 1778109303 | 6.11° C | 79% | 1017.2 hPa | 0 mm | - | 0 W/m² | - |
| 1778109003 | 6.11° C | 78% | 1017.2 hPa | 0 mm | - | 0 W/m² | - |
| 1778108703 | 6.67° C | 78% | 1017 hPa | 0 mm | - | 0 W/m² | - |
| 1778108404 | 6.67° C | 78% | 1017.2 hPa | 0 mm | - | 0 W/m² | - |
| 1778108103 | 6.67° C | 77% | 1017.3 hPa | 0 mm | - | 0 W/m² | - |
| 1778107803 | 6.11° C | 78% | 1016.9 hPa | 0 mm | - | 0 W/m² | - |
| 1778107503 | 6.11° C | 79% | 1016.9 hPa | 0 mm | - | 0 W/m² | - |
| 1778107203 | 6.11° C | 79% | 1017.2 hPa | 0 mm | - | 0 W/m² | - |
| 1778106603 | 5.56° C | 80% | 1017 hPa | 0 mm | - | 0 W/m² | - |
| 1778106303 | 5.56° C | 79% | 1017 hPa | 0 mm | - | 0 W/m² | - |
| 1778106003 | 5.56° C | 79% | 1017 hPa | 0 mm | - | 0 W/m² | - |
| 1778105703 | 5.56° C | 78% | 1016.8 hPa | 0 mm | - | 0 W/m² | - |
| 1778105403 | 6.11° C | 78% | 1016.8 hPa | 0 mm | - | 0 W/m² | - |
| 1778105103 | 6.11° C | 78% | 1016.7 hPa | 0 mm | - | 0 W/m² | - |
| 1778104804 | 6.11° C | 77% | 1016.6 hPa | 0 mm | - | 0 W/m² | - |
| 1778104504 | 6.11° C | 76% | 1016.9 hPa | 0 mm | - | 0 W/m² | - |
| 1778104204 | 6.67° C | 75% | 1016.8 hPa | 0 mm | - | 0 W/m² | - |
| 1778103904 | 6.67° C | 75% | 1016.9 hPa | 0 mm | - | 0 W/m² | - |
| 1778103604 | 6.67° C | 75% | 1016.8 hPa | 0 mm | - | 0 W/m² | - |
| 1778103304 | 6.67° C | 74% | 1016.9 hPa | 0 mm | - | 0 W/m² | - |
| 1778103004 | 7.22° C | 74% | 1016.6 hPa | 0 mm | - | 0 W/m² | - |
| 1778102704 | 7.22° C | 73% | 1016.9 hPa | 0 mm | - | 0 W/m² | - |
| 1778102404 | 7.22° C | 73% | 1016.8 hPa | 0 mm | - | 0 W/m² | - |
| 1778102104 | 7.22° C | 72% | 1016.8 hPa | 0 mm | - | 0 W/m² | - |
| 1778101804 | 7.78° C | 72% | 1016.7 hPa | 0 mm | - | 0 W/m² | - |
* Rain latest hour (hover to see other rain measurements)
** Current wind speed in m/s (hover to see current wind gust speed)